Time,TemperatureF,DewpointF,PressureIn,WindDirection,WindDirectionDegrees,WindSpeedMPH,WindSpeedGustMPH,Humidity,HourlyPrecipIn,Conditions,Clouds,dailyrainin,SolarRadiationWatts/m^2,SoftwareType,DateUTC
2013-03-15 00:02:00,41.0,39.0,-100.00,SE,131,3.0,8.0,94,0.00,,,0.42,0.000000,,2013-03-15 07:02:00,
2013-03-15 00:12:00,41.0,39.0,-100.00,SE,131,3.0,8.0,94,0.00,,,0.42,0.000000,,2013-03-15 07:12:00,
2013-03-15 00:22:00,41.0,39.0,-100.00,SE,131,3.0,8.0,94,0.00,,,0.42,0.000000,,2013-03-15 07:22:00,
2013-03-15 00:52:00,42.0,40.0,-100.00,SSW,200,2.0,7.0,93,0.01,,,0.43,0.000000,,2013-03-15 07:52:00,
2013-03-15 01:02:00,42.0,40.0,-100.00,SSW,200,2.0,7.0,93,0.01,,,0.43,0.000000,,2013-03-15 08:02:00,
2013-03-15 01:12:00,42.0,40.0,-100.00,SSW,200,2.0,7.0,93,0.01,,,0.43,0.000000,,2013-03-15 08:12:00,
2013-03-15 01:22:00,42.0,40.0,-100.00,SSW,200,2.0,7.0,93,0.01,,,0.43,0.000000,,2013-03-15 08:22:00,
2013-03-15 01:52:00,42.0,40.0,-100.00,East,81,1.0,4.0,92,0.00,,,0.43,0.000000,,2013-03-15 08:52:00,
2013-03-15 02:02:00,42.0,40.0,-100.00,East,81,1.0,4.0,92,0.00,,,0.43,0.000000,,2013-03-15 09:02:00,
2013-03-15 02:12:00,42.0,40.0,-100.00,East,81,1.0,4.0,92,0.00,,,0.43,0.000000,,2013-03-15 09:12:00,
2013-03-15 02:21:00,42.0,40.0,-100.00,East,81,1.0,4.0,92,0.00,,,0.43,0.000000,,2013-03-15 09:21:00,
2013-03-15 02:53:00,42.0,40.0,-100.00,SSE,147,1.0,6.0,94,0.00,,,0.43,0.000000,,2013-03-15 09:53:00,
2013-03-15 03:02:00,42.0,40.0,-100.00,SSE,147,1.0,6.0,94,0.00,,,0.43,0.000000,,2013-03-15 10:02:00,
2013-03-15 03:12:00,42.0,40.0,-100.00,SSE,147,1.0,6.0,94,0.00,,,0.43,0.000000,,2013-03-15 10:12:00,
2013-03-15 03:22:00,42.0,40.0,-100.00,SSE,147,1.0,6.0,94,0.00,,,0.43,0.000000,,2013-03-15 10:22:00,
2013-03-15 03:52:00,41.0,38.0,-100.00,SW,236,1.0,6.0,89,0.00,,,0.43,0.000000,,2013-03-15 10:52:00,
2013-03-15 04:02:00,41.0,38.0,-100.00,SW,236,1.0,6.0,89,0.00,,,0.43,0.000000,,2013-03-15 11:02:00,
2013-03-15 04:12:00,41.0,38.0,-100.00,SW,236,1.0,6.0,89,0.00,,,0.43,0.000000,,2013-03-15 11:12:00,
2013-03-15 04:22:00,41.0,38.0,-100.00,SW,236,1.0,6.0,89,0.00,,,0.43,0.000000,,2013-03-15 11:22:00,
2013-03-15 04:52:00,41.0,36.0,-100.00,South,178,1.0,6.0,83,0.00,,,0.43,0.000000,,2013-03-15 11:52:00,
2013-03-15 05:02:00,41.0,36.0,-100.00,South,178,1.0,6.0,83,0.00,,,0.43,0.000000,,2013-03-15 12:02:00,
2013-03-15 05:12:00,41.0,36.0,-100.00,South,178,1.0,6.0,83,0.00,,,0.43,0.000000,,2013-03-15 12:12:00,
2013-03-15 05:22:00,41.0,36.0,-100.00,South,178,1.0,6.0,83,0.00,,,0.43,0.000000,,2013-03-15 12:22:00,
2013-03-15 05:52:00,41.0,36.0,-100.00,SW,221,1.0,5.0,82,0.00,,,0.43,0.000000,,2013-03-15 12:52:00,
2013-03-15 06:02:00,41.0,36.0,-100.00,SW,221,1.0,5.0,82,0.00,,,0.43,0.000000,,2013-03-15 13:02:00,
2013-03-15 06:12:00,41.0,36.0,-100.00,SW,221,1.0,5.0,82,0.00,,,0.43,0.000000,,2013-03-15 13:12:00,
2013-03-15 06:21:00,41.0,36.0,-100.00,SW,221,1.0,5.0,82,0.00,,,0.43,0.000000,,2013-03-15 13:21:00,
2013-03-15 06:52:00,40.0,36.0,-100.00,WSW,257,1.0,8.0,85,0.00,,,0.43,0.000000,,2013-03-15 13:52:00,
2013-03-15 07:02:00,40.0,36.0,-100.00,WSW,257,1.0,8.0,85,0.00,,,0.43,0.000000,,2013-03-15 14:02:00,
2013-03-15 07:12:00,40.0,36.0,-100.00,WSW,257,1.0,8.0,85,0.00,,,0.43,0.000000,,2013-03-15 14:12:00,
2013-03-15 07:22:00,40.0,36.0,-100.00,WSW,257,1.0,8.0,85,0.00,,,0.43,0.000000,,2013-03-15 14:22:00,
2013-03-15 07:53:00,41.0,35.0,-100.00,SW,224,0.0,5.0,79,0.00,,,0.43,0.000000,,2013-03-15 14:53:00,
2013-03-15 08:02:00,41.0,35.0,-100.00,SW,224,0.0,5.0,79,0.00,,,0.43,0.000000,,2013-03-15 15:02:00,
2013-03-15 08:12:00,41.0,35.0,-100.00,SW,224,0.0,5.0,79,0.00,,,0.43,0.000000,,2013-03-15 15:12:00,
2013-03-15 08:21:00,41.0,35.0,-100.00,SW,224,0.0,5.0,79,0.00,,,0.43,0.000000,,2013-03-15 15:21:00,
2013-03-15 08:53:00,42.0,36.0,-100.00,SSE,153,1.0,5.0,78,0.00,,,0.43,17.000000,,2013-03-15 15:53:00,
2013-03-15 09:02:00,42.0,36.0,-100.00,SSE,153,1.0,5.0,78,0.00,,,0.43,17.000000,,2013-03-15 16:02:00,
2013-03-15 09:12:00,42.0,36.0,-100.00,SSE,153,1.0,5.0,78,0.00,,,0.43,17.000000,,2013-03-15 16:12:00,
2013-03-15 09:22:00,42.0,36.0,-100.00,SSE,153,1.0,5.0,78,0.00,,,0.43,17.000000,,2013-03-15 16:22:00,
2013-03-15 09:52:00,43.0,37.0,-100.00,SSE,158,4.0,7.0,79,0.00,,,0.43,63.000000,,2013-03-15 16:52:00,
2013-03-15 10:02:00,43.0,37.0,-100.00,SSE,158,4.0,7.0,79,0.00,,,0.43,63.000000,,2013-03-15 17:02:00,
2013-03-15 10:12:00,43.0,37.0,-100.00,SSE,158,4.0,7.0,79,0.00,,,0.43,63.000000,,2013-03-15 17:12:00,
2013-03-15 10:22:00,43.0,37.0,-100.00,SSE,158,4.0,7.0,79,0.00,,,0.43,63.000000,,2013-03-15 17:22:00,
2013-03-15 10:53:00,46.0,38.0,-100.00,SSE,165,2.0,8.0,74,0.00,,,0.43,134.000000,,2013-03-15 17:53:00,
2013-03-15 11:02:00,46.0,38.0,-100.00,SSE,165,2.0,8.0,74,0.00,,,0.43,134.000000,,2013-03-15 18:02:00,
2013-03-15 11:12:00,46.0,38.0,-100.00,SSE,165,2.0,8.0,74,0.00,,,0.43,134.000000,,2013-03-15 18:12:00,
2013-03-15 11:21:00,46.0,38.0,-100.00,SSE,165,2.0,8.0,74,0.00,,,0.43,134.000000,,2013-03-15 18:21:00,
2013-03-15 11:52:00,48.0,39.0,-100.00,WNW,298,1.0,7.0,70,0.00,,,0.43,191.000000,,2013-03-15 18:52:00,
2013-03-15 12:02:00,48.0,39.0,-100.00,WNW,298,1.0,7.0,70,0.00,,,0.43,191.000000,,2013-03-15 19:02:00,
2013-03-15 12:12:00,48.0,39.0,-100.00,WNW,298,1.0,7.0,70,0.00,,,0.43,191.000000,,2013-03-15 19:12:00,
2013-03-15 12:21:00,48.0,39.0,-100.00,WNW,298,1.0,7.0,70,0.00,,,0.43,191.000000,,2013-03-15 19:21:00,
2013-03-15 12:52:00,50.0,39.0,-100.00,SSW,195,2.0,10.0,65,0.00,,,-99.99,405.000000,,2013-03-15 19:52:00,
2013-03-15 13:02:00,50.0,39.0,-100.00,SSW,195,2.0,10.0,65,0.00,,,-99.99,405.000000,,2013-03-15 20:02:00,
2013-03-15 13:12:00,50.0,39.0,-100.00,SSW,195,2.0,10.0,65,0.00,,,-99.99,405.000000,,2013-03-15 20:12:00,
2013-03-15 13:21:00,50.0,39.0,-100.00,SSW,195,2.0,10.0,65,0.00,,,-99.99,405.000000,,2013-03-15 20:21:00,
2013-03-15 13:52:00,48.0,40.0,-100.00,SSW,194,2.0,11.0,74,0.00,,,0.43,243.000000,,2013-03-15 20:52:00,
2013-03-15 14:02:00,48.0,40.0,-100.00,SSW,194,2.0,11.0,74,0.00,,,0.43,243.000000,,2013-03-15 21:02:00,
2013-03-15 14:12:00,48.0,40.0,-100.00,SSW,194,2.0,11.0,74,0.00,,,0.43,243.000000,,2013-03-15 21:12:00,
2013-03-15 14:22:00,48.0,40.0,-100.00,SSW,194,2.0,11.0,74,0.00,,,0.43,243.000000,,2013-03-15 21:22:00,
2013-03-15 14:52:00,52.0,42.0,-100.00,SSW,196,1.0,6.0,69,0.00,,,0.43,359.000000,,2013-03-15 21:52:00,
2013-03-15 15:03:00,52.0,42.0,-100.00,SSW,196,1.0,6.0,69,0.00,,,0.43,359.000000,,2013-03-15 22:03:00,
2013-03-15 15:13:00,52.0,42.0,-100.00,SSW,196,1.0,6.0,69,0.00,,,0.43,359.000000,,2013-03-15 22:13:00,
2013-03-15 15:22:00,52.0,42.0,-100.00,SSW,196,1.0,6.0,69,0.00,,,0.43,359.000000,,2013-03-15 22:22:00,
2013-03-15 15:52:00,51.0,42.0,-100.00,SSW,209,2.0,8.0,71,0.00,,,0.37,447.000000,,2013-03-15 22:52:00,
2013-03-15 16:02:00,51.0,42.0,-100.00,SSW,209,2.0,8.0,71,0.00,,,0.37,447.000000,,2013-03-15 23:02:00,
2013-03-15 16:12:00,51.0,42.0,-100.00,SSW,209,2.0,8.0,71,0.00,,,0.37,447.000000,,2013-03-15 23:12:00,
2013-03-15 16:21:00,51.0,42.0,-100.00,SSW,209,2.0,8.0,71,0.00,,,0.37,447.000000,,2013-03-15 23:21:00,
2013-03-15 16:53:00,46.0,41.0,-100.00,South,174,3.0,11.0,83,0.02,,,0.34,226.000000,,2013-03-15 23:53:00,
2013-03-15 17:02:00,46.0,41.0,-100.00,South,174,3.0,11.0,83,0.02,,,0.34,226.000000,,2013-03-16 00:02:00,
2013-03-15 17:12:00,46.0,41.0,-100.00,South,174,3.0,11.0,83,0.02,,,0.34,226.000000,,2013-03-16 00:12:00,
2013-03-15 17:22:00,46.0,41.0,-100.00,South,174,3.0,11.0,83,0.02,,,0.34,226.000000,,2013-03-16 00:22:00,
2013-03-15 17:52:00,44.0,41.0,-100.00,SE,128,2.0,8.0,89,0.04,,,0.30,119.000000,,2013-03-16 00:52:00,
2013-03-15 18:02:00,44.0,41.0,-100.00,SE,128,2.0,8.0,89,0.04,,,0.30,119.000000,,2013-03-16 01:02:00,
2013-03-15 18:12:00,44.0,41.0,-100.00,SE,128,2.0,8.0,89,0.04,,,0.30,119.000000,,2013-03-16 01:12:00,
2013-03-15 18:21:00,44.0,41.0,-100.00,SE,128,2.0,8.0,89,0.04,,,0.30,119.000000,,2013-03-16 01:21:00,
2013-03-15 18:52:00,43.0,40.0,-100.00,South,185,1.0,13.0,89,0.00,,,0.20,130.000000,,2013-03-16 01:52:00,
2013-03-15 19:02:00,43.0,40.0,-100.00,South,185,1.0,13.0,89,0.00,,,0.20,130.000000,,2013-03-16 02:02:00,
2013-03-15 19:12:00,43.0,40.0,-100.00,South,185,1.0,13.0,89,0.00,,,0.20,130.000000,,2013-03-16 02:12:00,
2013-03-15 19:22:00,43.0,40.0,-100.00,South,185,1.0,13.0,89,0.00,,,0.20,130.000000,,2013-03-16 02:22:00,
2013-03-15 19:52:00,41.0,39.0,-100.00,SSE,158,1.0,6.0,94,0.04,,,0.16,19.000000,,2013-03-16 02:52:00,
2013-03-15 20:02:00,41.0,39.0,-100.00,SSE,158,1.0,6.0,94,0.04,,,0.16,19.000000,,2013-03-16 03:02:00,
2013-03-15 20:12:00,41.0,39.0,-100.00,SSE,158,1.0,6.0,94,0.04,,,0.16,19.000000,,2013-03-16 03:12:00,
2013-03-15 20:21:00,41.0,39.0,-100.00,SSE,158,1.0,6.0,94,0.04,,,0.16,19.000000,,2013-03-16 03:21:00,
2013-03-15 20:53:00,40.0,39.0,-100.00,South,175,1.0,4.0,95,0.03,,,0.16,0.000000,,2013-03-16 03:53:00,
2013-03-15 21:02:00,40.0,39.0,-100.00,South,175,1.0,4.0,95,0.03,,,0.16,0.000000,,2013-03-16 04:02:00,
2013-03-15 21:12:00,40.0,39.0,-100.00,South,175,1.0,4.0,95,0.03,,,0.16,0.000000,,2013-03-16 04:12:00,
2013-03-15 21:22:00,40.0,39.0,-100.00,South,175,1.0,4.0,95,0.03,,,0.16,0.000000,,2013-03-16 04:22:00,
2013-03-15 21:53:00,40.0,39.0,-100.00,SSW,207,1.0,7.0,96,0.01,,,0.15,0.000000,,2013-03-16 04:53:00,
2013-03-15 22:02:00,40.0,39.0,-100.00,SSW,207,1.0,7.0,96,0.01,,,0.15,0.000000,,2013-03-16 05:02:00,
2013-03-15 22:12:00,40.0,39.0,-100.00,SSW,207,1.0,7.0,96,0.01,,,0.15,0.000000,,2013-03-16 05:12:00,
2013-03-15 22:21:00,40.0,39.0,-100.00,SSW,207,1.0,7.0,96,0.01,,,0.15,0.000000,,2013-03-16 05:21:00,
2013-03-15 22:53:00,40.0,39.0,-100.00,SW,227,1.0,3.0,96,0.04,,,0.19,0.000000,,2013-03-16 05:53:00,
2013-03-15 23:02:00,40.0,39.0,-100.00,SW,227,1.0,3.0,96,0.04,,,0.19,0.000000,,2013-03-16 06:02:00,
2013-03-15 23:12:00,40.0,39.0,-100.00,SW,227,1.0,3.0,96,0.04,,,0.19,0.000000,,2013-03-16 06:12:00,
2013-03-15 23:21:00,40.0,39.0,-100.00,SW,227,1.0,3.0,96,0.04,,,0.19,0.000000,,2013-03-16 06:21:00,
2013-03-15 23:52:00,39.0,38.0,-100.00,SW,230,2.0,8.0,96,0.04,,,0.23,0.000000,,2013-03-16 06:52:00,